Other Public Products
Issued by NWS Charleston, SC

Current Version | Previous Version | Graphics & Text | Print | Product List | Glossary On
Versions: 1 2 3 4 5 6 7 8 9 10 11 12 13 14 15 16 17 18 19 20 21 22 23 24 25 26 27 28 29 30 31 32 33 34 35 36 37 38 39 40 41 42 43 44 45 46 47 48 49 50
000
FPUS82 KCHS 190712
OPUCHS

TEST...KCHS/KSAV Gateway Observations...TEST
National Weather Service Charleston SC
300 AM EDT THU OCT 19 2017

NOTE: "fair" indicates few or no clouds below 12,000 feet with no
significant weather and/or obstructions to visibility.

SCZ050-WAZ558-NCZ071-TXZ119-213-PAZ071-DCZ001-FLZ074-172-MI076-
NYZ176-178-MAZ016-IL014-TNZ027-NJZ106-GAZ044-MD014-190800-

...Gateway Observations for Charleston International...

CITY           SKY/WX    TMP DP  RH WIND       PRES   REMARKS
Chas Airport   CLEAR     57  54  89 N6        30.23F
Seattle        RAIN      53  52  96 S12       29.61F FOG
Charlotte      PTCLDY    44  44 100 NW5       30.31S
Dallas DFW     CLOUDY    66  48  52 S10       30.09S
Dallas Love    CLOUDY    67  48  50 S12       30.10F
Philladelphia  PTCLDY    53  47  79 SW6       30.29F
Wash National  PTCLDY    51  46  83 SW5       30.30F
Baltimore      PTCLDY    45  45 100 CALM      30.28F
Miami          MOCLDY    77  74  90 NW3       30.00F
Detroit        CLEAR     54  43  66 S10       30.09F
Newark         CLEAR     54  46  74 SW7       30.27S
Laguardia      CLEAR     61  45  55 SW6       30.25F
J F K          CLEAR     54  52  93 SW7       30.28S
Boston Logan   CLEAR     53  47  79 S6        30.24F
Ft. Lauderdale MOCLDY    74  74 100 CALM      29.99F
Chicago O`Hare PTCLDY    59  45  59 SW12      30.03R
Chicago Midway CLEAR     58  47  66 SW14      30.04S
Houston Bush   MOCLDY    63  62  97 CALM      30.11F
Houston Hobby  PTCLDY    67  61  81 NE6       30.10F
Nashville      CLEAR     51  44  77 S3        30.24R
Atlanta        CLEAR     51  43  74 E7        30.27S

$$

GAZ044-118-TXZ119-213-NCZ071-DCZ001-MDZ014-506-PAZ021-071-NJZ106-
NYZ176-178-MAZ106-OHZ011-021-055-MIZ076-KYZ091-ILZ014-INZ047-
MNZ060-ONZ431-190800-

...Gateway Observations for Savannah International...

CITY           SKY/WX    TMP DP  RH WIND       PRES   REMARKS
Savannah Arpt  CLEAR     60  56  86 NE6       30.22F
Atlanta        CLEAR     51  43  74 E7        30.27S
Charlotte      PTCLDY    44  44 100 NW5       30.31S
Dallas DFW     CLOUDY    66  48  52 S10       30.09S
Houston Bush   MOCLDY    63  62  97 CALM      30.11F
Wash National  PTCLDY    51  46  83 SW5       30.30F
Wash Dulles    PTCLDY    46  43  89 S3        30.28F
Baltimore      PTCLDY    45  45 100 CALM      30.28F
Philadelphia   PTCLDY    53  47  79 SW6       30.29F
Newark         CLEAR     54  46  74 SW7       30.27S
Laguardia      CLEAR     61  45  55 SW6       30.25F
J F K          CLEAR     54  52  93 SW7       30.28S
Boston         CLEAR     53  47  79 S6        30.24F
Pittsburg      CLEAR     45  40  82 CALM      30.20S
Akron          CLEAR     47  38  71 S7        30.19S
Cleveland      CLEAR     55  42  61 S10       30.17F
Cincinnati     CLEAR     47  44  90 S8        30.19F
Columbus       CLEAR     45  42  92 CALM      30.20S
Detroit        CLEAR     54  43  66 S10       30.09F
Chicago O`Hare PTCLDY    59  45  59 SW12      30.03R
Minneapolis    CLOUDY    52  30  43 W5        30.03R
Indianapolis   CLEAR     51  45  79 S7        30.16F
Toronto Canada CLEAR     55  48  76 SW13G18   30.05F

$$




USA.gov is the U.S. government's official web portal to all federal, state and local government web resources and services.